This is the latest recevied weather packets stored in our database for station/object S57D-6. If no packets are shown the sender has not sent any weather packets the latest 10 day(s).
| Time | Temp. | Humidity | Pressure | Rain* | Wind** | Luminosity | Snow |
|---|---|---|---|---|---|---|---|
| 1777621550 | 10.56° C | 62% | 1027.3 hPa | 0 mm | - | - | - |
| 1777620949 | 10° C | 63% | 1027.3 hPa | 0 mm | - | - | - |
| 1777620650 | 9.44° C | 65% | 1027.4 hPa | 0 mm | - | - | - |
| 1777620348 | 9.44° C | 65% | 1027.3 hPa | 0 mm | - | - | - |
| 1777620049 | 9.44° C | 67% | 1027.4 hPa | 0 mm | - | - | - |
| 1777619748 | 8.89° C | 67% | 1027.3 hPa | 0 mm | - | - | - |
| 1777619087 | 8.89° C | 69% | 1027.4 hPa | 0 mm | - | - | - |
| 1777618786 | 8.33° C | 70% | 1027.4 hPa | 0 mm | - | - | - |
| 1777618486 | 7.78° C | 71% | 1027.4 hPa | 0 mm | - | - | - |
| 1777618185 | 7.78° C | 71% | 1027.4 hPa | 0 mm | - | - | - |
| 1777617886 | 7.78° C | 72% | 1027.4 hPa | 0 mm | - | - | - |
| 1777617584 | 7.22° C | 72% | 1027.4 hPa | 0 mm | - | - | - |
| 1777616802 | 6.67° C | 75% | 1027.2 hPa | 0 mm | - | - | - |
| 1777616501 | 6.11° C | 75% | 1027.3 hPa | 0 mm | - | - | - |
| 1777616201 | 6.11° C | 76% | 1027.2 hPa | 0 mm | - | - | - |
| 1777615900 | 5.56° C | 78% | 1027.2 hPa | 0 mm | - | - | - |
| 1777615601 | 5.56° C | 78% | 1027.2 hPa | 0 mm | - | - | - |
| 1777615300 | 5° C | 80% | 1027.2 hPa | 0 mm | - | - | - |
| 1777615000 | 4.44° C | 81% | 1027.2 hPa | 0 mm | - | - | - |
| 1777614699 | 3.89° C | 82% | 1027.1 hPa | 0 mm | - | - | - |
| 1777614401 | 3.89° C | 83% | 1027.1 hPa | 0 mm | - | - | - |
| 1777614098 | 2.78° C | 84% | 1027.1 hPa | 0 mm | - | - | - |
| 1777613799 | 2.22° C | 85% | 1027 hPa | 0 mm | - | - | - |
| 1777613498 | 2.22° C | 85% | 1027.1 hPa | 0 mm | - | - | - |
| 1777613199 | 1.67° C | 85% | 1027.1 hPa | 0 mm | - | - | - |
* Rain latest hour (hover to see other rain measurements)
** Current wind speed in m/s (hover to see current wind gust speed)